THORAD AGENA D DEB, 5698

Orbit data source: Space-Track

THORAD AGENA D DEB, 5698 is space debris in SSO originally from a launch on Wed, 08 Apr 1970 UTC launched from the Air Force Western Test Range (AFWTR). Debris objects in space refer to the collection of defunct objects orbiting the Earth. Examples of debris include non-operational satellites, rocket bodies, and fragments generated from explosions, collisions, or faulty payload assembly.

Loading next visibility...
Identifier
5698, 1970-025MD
Orbit
SSO
Country
Flag of USUS
Related business
Manufacturer
Unknown
Mission
Spacecraft
Bus & Motor
Unknown
Mass
Unknown
Launch date (UTC)
1970-04-08 (56 years ago)
Launch vehicle
Unknown
Launch site
Air Force Western Test Range (AFWTR)
Object type
Payload
Rocket body
Debris
Shape & HBR
Unknown shape, 0.1 m
Radar Cross Section
Small (<0.1 m²)

Expand to show TLE details & history
Last TLE update: 22 hours ago

TLE from 22 hours ago
0 THORAD AGENA D DEB
1 05698U 70025MD  26072.33988228  .00000334  00000-0  50202-3 0  9994
2 05698  99.3529 284.3982 0008486 146.2626  35.1390 13.60312041577412
Epoch: 2026-03-13T08:09Z
TLE epoch observation values (Epoch: 2026-03-13T08:09:25.828Z)
Latitude
-1.5601°
Longitude
170.80806°
Altitude
1,032.443 km
Speed
7.338 km/s
True Right ascension
06h 56m 34s
True Declination
-1° 33' 04"
Sunlit
Object was in daylight at epoch
Visualization orbit readout
Latitude
Unknown
Longitude
Unknown
Altitude
Unknown
Speed
Unknown
Apparent Right ascension
Unknown
Apparent Declination
Unknown
Sunlit
N/A
Visualization observer readout
Local Sidereal Time
10:54:33
Azimuth
Unknown
Elevation
Unknown
Doppler factor
Unknown
Orbital elements
Apogee altitude
1,038.116 km
Perigee altitude
1,025.54 km
Semi-major axis
7,409.965 km
Eccentricity
0.00085
Inclination
99.3529°
RAAN
284.3982°
Arg. of periapsis
146.2626°
True anomaly
35.19502°
Mean anomaly
35.139°
Eccentric anomaly
35.167°
Mean motion
3.40266 °/min
Orbital period
105.8 mins
BSTAR
0.00050202
Loading maneuver chart data...
Computing Atmospheric mass density...
Loading historical data...
Loading historical data...
Loading historical data...
Loading historical data...
Loading historical data...
Loading historical data...
Loading historical data...

Documentation

Showing up to 5 results
|